Weather History for Shelby, NC

Change the Weather History Date:

Wednesday, November 7, 2012

  Actual Average (KHKY) Record (KHKY)
Temperature  
Mean Temperature 43 °F -  
Max Temperature 51 °F 61 °F 75 °F (1999)
Min Temperature 35 °F 39 °F 24 °F (2010)
Degree Days  
Heating Degree Days 22    
Moisture  
Dew Point 34 °F    
Average Humidity 76    
Maximum Humidity 87    
Minimum Humidity 54    
Precipitation  
Precipitation 0.00 in - - ()
Sea Level Pressure  
Sea Level Pressure 29.92 in    
Wind  
Wind Speed 3 mph (WNW)    
Max Wind Speed 9 mph    
Max Gust Speed -    
Visibility 9 miles    
Events Rain    
Averages and records for this station are not official NWS values.
T = Trace of Precipitation, MM = Missing Value Source: NWS Daily Summary

Daily Weather History Graph

Daily Weather History Graph

Search for Another Location

Airport:

Trip Planner

Search our weather history database for the weather conditions in past years. The results will help you decide how hot, cold, wet, or windy it might be!

Date:

Astronomy

Nov. 07, 2012 Rise Set
Actual Time 6:53 AM EST 5:25 PM EST
Civil Twilight 6:27 AM EST 5:52 PM EST
Nautical Twilight 5:57 AM EST 6:22 PM EST
Astronomical Twilight 5:27 AM EST 6:52 PM EST
Moon 12:01 AM EST (11/7) 1:20 PM EST (11/7)
Length of Visible Light 11h 24m
Length of Day
10h 31m
Last Quarter, 43% of the Moon is Illuminated
Nov 7
Last Quarter
Nov 13
New
Nov 20
First Quarter
Nov 28
Full
Dec 6
Last Quarter

Hourly Weather History & Observations

Time (EST) Temp. Windchill Dew Point Humidity Pressure Visibility Wind Dir Wind Speed Gust Speed Precip Events Conditions
12:15 AM 35.6 °F 32.8 °F 32.0 °F 87% 29.95 in 7.0 mi NNE 3.5 mph - N/A   Scattered Clouds
12:35 AM 35.6 °F 32.8 °F 32.0 °F 87% 29.94 in 7.0 mi NNE 3.5 mph - N/A   Mostly Cloudy
12:55 AM 35.6 °F 31.7 °F 32.0 °F 87% 29.94 in 7.0 mi NNE 4.6 mph - N/A   Overcast
1:15 AM 35.6 °F - 32.0 °F 87% 29.94 in 7.0 mi Calm Calm - N/A   Overcast
1:35 AM 35.6 °F - 32.0 °F 87% 29.94 in 7.0 mi Calm Calm - N/A   Overcast
1:55 AM 35.6 °F - 32.0 °F 87% 29.94 in 7.0 mi Calm Calm - N/A   Overcast
2:15 AM 35.6 °F 32.8 °F 32.0 °F 87% 29.93 in 7.0 mi North 3.5 mph - N/A   Overcast
2:35 AM 35.6 °F 32.8 °F 32.0 °F 87% 29.94 in 7.0 mi North 3.5 mph - N/A   Overcast
2:55 AM 35.6 °F 32.8 °F 32.0 °F 87% 29.93 in 10.0 mi North 3.5 mph - N/A   Overcast
3:15 AM 35.6 °F 30.7 °F 32.0 °F 87% 29.92 in 7.0 mi NNE 5.8 mph - N/A   Overcast
3:55 AM 35.6 °F 32.8 °F 32.0 °F 87% 29.92 in 7.0 mi North 3.5 mph - N/A   Overcast
4:15 AM 35.6 °F - 32.0 °F 87% 29.91 in 7.0 mi Calm Calm - N/A   Overcast
4:35 AM 35.6 °F 32.8 °F 32.0 °F 87% 29.92 in 10.0 mi North 3.5 mph - N/A   Overcast
4:55 AM 35.6 °F 32.8 °F 32.0 °F 87% 29.92 in 10.0 mi NNE 3.5 mph - N/A   Overcast
5:15 AM 35.6 °F - 32.0 °F 87% 29.92 in 7.0 mi Calm Calm - N/A   Overcast
5:35 AM 35.6 °F - 32.0 °F 87% 29.92 in 7.0 mi Calm Calm - N/A   Overcast
5:55 AM 35.6 °F - 32.0 °F 87% 29.92 in 7.0 mi Calm Calm - N/A   Overcast
6:15 AM 35.6 °F - 32.0 °F 87% 29.91 in 7.0 mi Calm Calm - N/A   Mostly Cloudy
6:35 AM 35.6 °F - 32.0 °F 87% 29.92 in 7.0 mi Calm Calm - N/A   Mostly Cloudy
6:55 AM 35.6 °F - 32.0 °F 87% 29.92 in 7.0 mi Calm Calm - N/A   Overcast
7:15 AM 35.6 °F - 32.0 °F 87% 29.93 in 7.0 mi Calm Calm - N/A   Light Drizzle
7:35 AM 35.6 °F - 32.0 °F 87% 29.93 in 7.0 mi Calm Calm - N/A   Light Drizzle
7:55 AM 37.4 °F - 32.0 °F 81% 29.93 in 7.0 mi Calm Calm - N/A Rain Light Rain
8:15 AM 37.4 °F - 32.0 °F 81% 29.94 in 7.0 mi Calm Calm - N/A   Light Drizzle
8:35 AM 37.4 °F - 32.0 °F 81% 29.94 in 7.0 mi Calm Calm - N/A   Overcast
8:55 AM 37.4 °F - 32.0 °F 81% 29.94 in 10.0 mi Calm Calm - N/A   Mostly Cloudy
9:15 AM 37.4 °F - 32.0 °F 81% 29.94 in 10.0 mi Calm Calm - N/A   Scattered Clouds
9:55 AM 41.0 °F - 32.0 °F 70% 29.94 in - Calm Calm - N/A   Unknown
10:15 AM 41.0 °F - 32.0 °F 70% 29.94 in 10.0 mi Calm Calm - N/A   Clear
10:35 AM 42.8 °F 41.1 °F 32.0 °F 66% 29.93 in 10.0 mi NNW 3.5 mph - N/A   Mostly Cloudy
10:55 AM 42.8 °F - 32.0 °F 66% 29.93 in 10.0 mi Calm Calm - N/A   Mostly Cloudy
11:15 AM 42.8 °F 39.3 °F 32.0 °F 66% 29.93 in 10.0 mi WSW 5.8 mph - N/A   Scattered Clouds
11:35 AM 44.6 °F 41.4 °F 33.8 °F 66% 29.92 in 10.0 mi WSW 5.8 mph - N/A   Scattered Clouds
11:55 AM 46.4 °F 42.9 °F 33.8 °F 62% 29.91 in 10.0 mi WNW 6.9 mph - N/A   Scattered Clouds
12:15 PM 46.4 °F 43.5 °F 33.8 °F 62% 29.90 in 10.0 mi West 5.8 mph - N/A   Scattered Clouds
12:35 PM 46.4 °F 43.5 °F 33.8 °F 62% 29.89 in 10.0 mi West 5.8 mph - N/A   Scattered Clouds
12:55 PM 46.4 °F 44.3 °F 33.8 °F 62% 29.88 in 10.0 mi West 4.6 mph - N/A   Scattered Clouds
1:15 PM 46.4 °F - 33.8 °F 62% 29.88 in 10.0 mi Calm Calm - N/A   Clear
1:35 PM 48.2 °F - 35.6 °F 62% 29.87 in 10.0 mi NNW 4.6 mph - N/A   Clear
1:55 PM 50.0 °F - 35.6 °F 58% 29.87 in 10.0 mi NW 4.6 mph - N/A   Clear
2:15 PM 50.0 °F - 35.6 °F 58% 29.86 in 10.0 mi WSW 4.6 mph - N/A   Clear
2:35 PM 50.0 °F - 35.6 °F 58% 29.86 in 10.0 mi WNW 5.8 mph - N/A   Clear
2:55 PM 51.8 °F - 35.6 °F 54% 29.86 in 10.0 mi NW 5.8 mph - N/A   Clear
3:15 PM 51.8 °F - 35.6 °F 54% 29.85 in 10.0 mi West 6.9 mph - N/A   Clear
3:35 PM 51.8 °F - 35.6 °F 54% 29.86 in 10.0 mi West 3.5 mph - N/A   Clear
3:55 PM 51.8 °F - 35.6 °F 54% 29.87 in 10.0 mi WSW 6.9 mph - N/A   Mostly Cloudy
4:15 PM 51.8 °F - 35.6 °F 54% 29.87 in 10.0 mi WSW 9.2 mph - N/A   Mostly Cloudy
4:35 PM 50.0 °F - 35.6 °F 58% 29.87 in 10.0 mi WSW 8.1 mph - N/A   Scattered Clouds
4:55 PM 50.0 °F - 37.4 °F 62% 29.88 in 10.0 mi WSW 8.1 mph - N/A   Mostly Cloudy
5:15 PM 50.0 °F - 37.4 °F 62% 29.89 in 10.0 mi WSW 6.9 mph - N/A   Overcast
5:35 PM 48.2 °F - 37.4 °F 66% 29.89 in 10.0 mi WSW 6.9 mph - N/A   Overcast
5:55 PM 46.4 °F 44.3 °F 37.4 °F 71% 29.90 in 10.0 mi West 4.6 mph - N/A   Mostly Cloudy
6:15 PM 44.6 °F 42.2 °F 37.4 °F 76% 29.91 in 10.0 mi West 4.6 mph - N/A   Scattered Clouds
6:35 PM 44.6 °F 42.2 °F 37.4 °F 76% 29.92 in 10.0 mi WSW 4.6 mph - N/A   Clear
6:55 PM 44.6 °F 42.2 °F 37.4 °F 76% 29.92 in 10.0 mi West 4.6 mph - N/A   Clear
7:15 PM 42.8 °F 40.1 °F 37.4 °F 81% 29.92 in 10.0 mi West 4.6 mph - N/A   Clear
7:35 PM 42.8 °F 40.1 °F 37.4 °F 81% 29.92 in 10.0 mi West 4.6 mph - N/A   Clear
7:55 PM 42.8 °F 40.1 °F 37.4 °F 81% 29.93 in 10.0 mi West 4.6 mph - N/A   Clear
8:15 PM 42.8 °F 40.1 °F 37.4 °F 81% 29.93 in 10.0 mi West 4.6 mph - N/A   Clear
8:35 PM 41.0 °F 39.0 °F 37.4 °F 87% 29.93 in 10.0 mi West 3.5 mph - N/A   Clear
8:55 PM 41.0 °F 38.0 °F 37.4 °F 87% 29.94 in 10.0 mi West 4.6 mph - N/A   Clear
9:15 PM 41.0 °F 39.0 °F 37.4 °F 87% 29.94 in 10.0 mi West 3.5 mph - N/A   Clear
9:35 PM 41.0 °F 39.0 °F 37.4 °F 87% 29.95 in 10.0 mi West 3.5 mph - N/A   Clear
9:55 PM 39.2 °F 35.9 °F 35.6 °F 87% 29.96 in 10.0 mi WNW 4.6 mph - N/A   Clear
10:15 PM 41.0 °F 39.0 °F 37.4 °F 87% 29.96 in 10.0 mi WNW 3.5 mph - N/A   Clear
10:35 PM 41.0 °F 39.0 °F 35.6 °F 81% 29.96 in 10.0 mi West 3.5 mph - N/A   Clear
10:55 PM 41.0 °F 38.0 °F 35.6 °F 81% 29.97 in 10.0 mi WNW 4.6 mph - N/A   Clear
11:15 PM 39.2 °F 35.0 °F 35.6 °F 87% 29.97 in 10.0 mi WNW 5.8 mph - N/A   Clear
11:35 PM 37.4 °F 32.8 °F 33.8 °F 87% 29.97 in 10.0 mi WNW 5.8 mph - N/A   Clear
11:55 PM 41.0 °F 35.8 °F 33.8 °F 76% 29.97 in 10.0 mi NW 8.1 mph - N/A   Clear